This demonstration page uses our WeatherBlox Daily Observations layout. Learn more.

Left ArrowRight Arrow

Hourly Observations for August 3, 2020

Temp ( °F °C ) Dew Point ( °F °C ) Humidity (%) Winds ( mph kmh ) Pressure ( in mb ) Visibility ( mi km ) Precip ( " mm )
12:53 am 00:53 Clear 66 18.9 64 17.8 93 93 N N/A 29.98 1015 10 16.0934 N/A
1:53 am 01:53 Mostly Cloudy 65 18.3 64 17.8 97 97 N N/A 29.98 1015 10 16.0934 N/A
2:53 am 02:53 Mostly Cloudy 67 19.4 65 18.3 93 93 N N/A 29.97 1015 10 16.0934 N/A
3:53 am 03:53 Mostly Cloudy 66 18.9 65 18.3 96 96 N N/A 29.97 1015 10 16.0934 N/A
4:53 am 04:53 Mostly Cloudy 67 19.4 65 18.3 93 93 N N/A 29.96 1015 10 16.0934 N/A
5:53 am 05:53 Mostly Cloudy 66 18.9 65 18.3 96 96 N N/A 29.98 1015 10 16.0934 N/A
6:53 am 06:53 Sunny 66 18.9 65 18.3 96 96 N N/A 29.99 1016 9 14.48406 N/A
7:53 am 07:53 Partly Cloudy 70 21.1 67 19.4 90 90 N N/A 30.01 1016 10 16.0934 N/A
8:53 am 08:53 Cloudy with Light Rain 70 21.1 67 19.4 90 90 N N/A 30.01 1016 9 14.48406 0.01 0.254
9:53 am 09:53 Mostly Cloudy 72 22.2 67 19.4 84 84 WSW 5 7 30.02 1017 10 16.0934 0.001 0.001
10:20 am 10:20 Cloudy 72 22.2 67 19.4 84 84 N N/A 30.01 1016 10 16.0934 N/A
10:29 am 10:29 Cloudy 73 22.8 67 19.4 81 81 WSW 3 6 30.01 1016 10 16.0934 N/A
10:53 am 10:53 Mostly Cloudy 74 23.3 68 20 82 82 N N/A 30.01 1016 10 16.0934 N/A
11:53 am 11:53 Sunny 78 25.6 67 19.4 69 69 SSW 5 7 30.01 1016 10 16.0934 N/A
12:53 pm 12:53 Partly Cloudy 79 26.1 66 18.9 65 65 VRB 3 6 30 1016 10 16.0934 N/A
1:53 pm 13:53 Mostly Sunny 81 27.2 68 20 65 65 SSW 8 13 29.98 1015 10 16.0934 N/A
2:53 pm 14:53 Mostly Sunny 82 27.8 68 20 63 63 VRB 3 6 29.96 1014 10 16.0934 N/A
3:53 pm 15:53 Mostly Sunny 81 27.2 68 20 65 65 SW 5 7 29.93 1014 10 16.0934 N/A
4:53 pm 16:53 Partly Cloudy 83 28.3 67 19.4 59 59 VRB 6 9 29.92 1013 10 16.0934 N/A
5:13 pm 17:13 Mostly Cloudy with Nearby Thunderstorms 77 25 65 18.3 66 66 NW 20 31 29.91 1013 10 16.0934 N/A
5:24 pm 17:24 Mostly Cloudy 73 22.8 62 16.7 69 69 NNW 21 33 29.94 1014 10 16.0934 N/A
5:41 pm 17:41 Cloudy with Nearby Thunderstorms 70 21.1 62 16.7 76 76 NNW 14 22 29.94 1014 5 8.0467 0.03 0.762
5:53 pm 17:53 Cloudy with Light Thunderstorms 68 20 63 17.2 84 84 NNW 13 20 29.96 1015 7 11.26538 0.04 1.016
6:13 pm 18:13 Cloudy with Heavy Rain 66 18.9 63 17.2 90 90 N 13 20 29.96 1014 2.5 4.02335 0.06 1.524
6:24 pm 18:24 Cloudy with Heavy Thunderstorms 66 18.9 63 17.2 90 90 NNW 9 15 29.97 1015 1.75 2.816345 0.15 3.81
6:30 pm 18:30 Cloudy with Light Thunderstorms 66 18.9 62 16.7 87 87 NW 9 15 29.97 1015 3 4.82802 0.16 4.064
6:45 pm 18:45 Cloudy with Heavy Rain 66 18.9 63 17.2 90 90 N 7 11 29.97 1015 2.5 4.02335 0.21 5.334
6:53 pm 18:53 Cloudy with Light Rain 66 18.9 63 17.2 90 90 N 7 11 29.97 1015 4 6.43736 0.22 5.588
7:18 pm 19:18 Cloudy with Heavy Rain 66 18.9 64 17.8 93 93 NNE 3 6 29.97 1015 1.75 2.816345 0.07 1.778
7:25 pm 19:25 Cloudy with Light Rain 66 18.9 64 17.8 93 93 NNW 3 6 29.97 1015 3 4.82802 0.08 2.032
7:53 pm 19:53 Cloudy with Light Rain 67 19.4 65 18.3 93 93 SSW 3 6 29.97 1015 6 9.65604 0.1 2.54
8:53 pm 20:53 Mostly Clear 67 19.4 65 18.3 93 93 N N/A 29.95 1014 10 16.0934 0.02 0.508
9:53 pm 21:53 Clear 67 19.4 65 18.3 93 93 N N/A 29.95 1014 9 14.48406 N/A
10:53 pm 22:53 Mostly Clear 66 18.9 65 18.3 96 96 N N/A 29.97 1015 9 14.48406 N/A
11:49 pm 23:49 Clear with Mist and Fog 64 18 64 18 100 100 N N/A 29.97 1015 1.75 2.816345 N/A
11:51 pm 23:51 Mostly Cloudy with Mist and Fog 64 18 64 18 100 100 N N/A 29.97 1015 1 1.60934 N/A
11:53 pm 23:53 Mostly Cloudy with Mist and Fog 64 17.8 63 17.2 96 96 N N/A 29.96 1015 0.75 1.207005 N/A

Powered by AerisWeather